Weather History for KJEF - May, 2013

Change the Weather History Date:

Friday, May 3, 2013

  Actual Average Record
Temperature  
Mean Temperature 37 °F -  
Max Temperature 39 °F 72 °F 90 °F (1949)
Min Temperature 35 °F 46 °F 28 °F (1967)
Degree Days  
Heating Degree Days 28    
Moisture  
Dew Point 35 °F    
Average Humidity 90    
Maximum Humidity 93    
Minimum Humidity 81    
Precipitation  
Precipitation 0.77 in - - ()
Sea Level Pressure  
Sea Level Pressure 30.01 in    
Wind  
Wind Speed 8 mph (NW)    
Max Wind Speed 14 mph    
Max Gust Speed 21 mph    
Visibility 6 miles    
Events Rain    
Averages and records for this station are not official NWS values.
T = Trace of Precipitation, MM = Missing Value Source: NWS Daily Summary

Daily Weather History Graph

Daily Weather History Graph

Search for Another Location

Airport or City:

Trip Planner

Search our weather history database for the weather conditions in past years. The results will help you decide how hot, cold, wet, or windy it might be!

Date:

Astronomy

May. 03, 2013 Rise Set
Actual Time 6:08 AM CDT 8:02 PM CDT
Civil Twilight 5:39 AM CDT 8:31 PM CDT
Nautical Twilight 5:04 AM CDT 9:06 PM CDT
Astronomical Twilight 4:27 AM CDT 9:44 PM CDT
Moon 2:29 AM CDT (5/3) 2:01 PM CDT (5/3)
Length of Visible Light 14h 51m
Length of Day
13h 54m
Last Quarter, 37% of the Moon is Illuminated
May 3
Last Quarter
May 9
New
May 17
First Quarter
May 24
Full
May 31
Last Quarter

Hourly Weather History & Observations

Time (CDT) Temp. Windchill Dew Point Humidity Pressure Visibility Wind Dir Wind Speed Gust Speed Precip Events Conditions
12:14 AM 37.4 °F 31.4 °F 35.6 °F 93% 30.19 in 7.0 mi NNW 8.1 mph - 0.01 in   Overcast
12:40 AM 37.4 °F 31.4 °F 33.8 °F 87% 30.18 in 9.0 mi WNW 8.1 mph - 0.01 in   Overcast
12:53 AM 37.0 °F 30.4 °F 34.0 °F 89% 30.16 in 5.0 mi NW 9.2 mph - 0.01 in Rain Light Rain
1:32 AM 37.4 °F 30.8 °F 33.8 °F 87% 30.17 in 3.0 mi NW 9.2 mph - 0.07 in Rain Rain
1:39 AM 37.4 °F 32.1 °F 33.8 °F 87% 30.16 in 4.0 mi NW 6.9 mph - 0.08 in Rain Light Rain
1:46 AM 37.4 °F 32.1 °F 35.6 °F 93% 30.16 in 5.0 mi NW 6.9 mph - 0.09 in Rain Light Rain
1:53 AM 37.0 °F 31.0 °F 34.0 °F 89% 30.13 in 5.0 mi NW 8.1 mph - 0.09 in Rain Light Rain
2:18 AM 37.4 °F 29.8 °F 33.8 °F 87% 30.13 in 8.0 mi NW 11.5 mph - 0.02 in   Overcast
2:53 AM 37.0 °F 32.4 °F 34.0 °F 89% 30.10 in 6.0 mi NW 5.8 mph - 0.06 in Rain Light Rain
3:53 AM 37.0 °F 30.4 °F 34.0 °F 89% 30.09 in 5.0 mi NW 9.2 mph - 0.14 in Rain Light Rain
4:28 AM 35.6 °F 29.2 °F 33.8 °F 93% 30.10 in 4.0 mi NW 8.1 mph - 0.05 in Rain Rain
4:33 AM 35.6 °F 29.2 °F 33.8 °F 93% 30.10 in 4.0 mi NW 8.1 mph - 0.05 in Rain Light Rain
4:48 AM 35.6 °F 29.9 °F 33.8 °F 93% 30.09 in 7.0 mi NW 6.9 mph - 0.06 in Rain Light Rain
4:53 AM 36.0 °F 29.6 °F 34.0 °F 93% 30.07 in 7.0 mi NW 8.1 mph - 0.06 in Rain Light Rain
5:05 AM 35.6 °F 29.9 °F 33.8 °F 93% 30.08 in 6.0 mi NW 6.9 mph - 0.00 in   Overcast
5:13 AM 35.6 °F 29.9 °F 33.8 °F 93% 30.08 in 4.0 mi NW 6.9 mph - 0.02 in Rain Rain
5:24 AM 35.6 °F 29.2 °F 33.8 °F 93% 30.08 in 4.0 mi NW 8.1 mph - 0.04 in Rain Light Rain
5:35 AM 35.6 °F 29.2 °F 33.8 °F 93% 30.08 in 8.0 mi NW 8.1 mph - 0.04 in Rain Light Rain
5:53 AM 36.0 °F 29.0 °F 34.0 °F 93% 30.06 in 5.0 mi NW 9.2 mph - 0.06 in Rain Light Rain
6:19 AM 35.6 °F 29.2 °F 33.8 °F 93% 30.08 in 4.0 mi WNW 8.1 mph - 0.04 in Rain Light Rain
6:22 AM 35.6 °F 30.7 °F 33.8 °F 93% 30.08 in 2.0 mi NW 5.8 mph - 0.04 in Rain Light Rain
6:37 AM 35.6 °F 29.2 °F 33.8 °F 93% 30.08 in 2.0 mi WNW 8.1 mph - 0.07 in Rain Rain
6:51 AM 35.6 °F 27.5 °F 33.8 °F 93% 30.07 in 2.0 mi NW 11.5 mph - 0.07 in Rain Light Rain
6:53 AM 36.0 °F 29.0 °F 33.1 °F 89% 30.06 in 2.0 mi NW 9.2 mph - 0.07 in Rain Light Rain
6:56 AM 35.6 °F 28.6 °F 33.8 °F 93% 30.07 in 9.0 mi NW 9.2 mph - 0.01 in Rain Light Rain
7:05 AM 35.6 °F 26.6 °F 33.8 °F 93% 30.07 in 4.0 mi NW 13.8 mph - 0.01 in   Overcast
7:10 AM 35.6 °F 28.6 °F 33.8 °F 93% 30.07 in 2.0 mi NW 9.2 mph - 0.01 in Rain Light Rain
7:30 AM 35.6 °F 28.6 °F 33.8 °F 93% 30.06 in 2.0 mi NNW 9.2 mph - 0.03 in Rain Light Rain
7:53 AM 37.0 °F 31.0 °F 34.0 °F 89% 30.04 in 2.0 mi NW 8.1 mph - 0.04 in   Overcast
8:00 AM 37.4 °F 31.4 °F 33.8 °F 87% 30.05 in 7.0 mi NW 8.1 mph - N/A   Overcast
8:53 AM 37.0 °F 31.0 °F 33.1 °F 86% 30.02 in 10.0 mi NNW 8.1 mph 17.3 mph 0.00 in   Overcast
9:53 AM 37.0 °F 31.0 °F 34.0 °F 89% 30.01 in 10.0 mi NW 8.1 mph - 0.01 in Rain Light Rain
10:53 AM 37.9 °F 31.5 °F 35.1 °F 89% 30.01 in 8.0 mi NW 9.2 mph - 0.05 in Rain Light Rain
11:43 AM 39.2 °F 34.2 °F 35.6 °F 87% 30.00 in 10.0 mi NNW 6.9 mph - 0.04 in Rain Light Rain
11:51 AM 39.2 °F 33.0 °F 35.6 °F 87% 30.00 in 9.0 mi NNW 9.2 mph - 0.04 in Rain Light Rain
11:53 AM 37.9 °F 32.1 °F 35.1 °F 89% 29.98 in 8.0 mi NW 8.1 mph - 0.04 in Rain Light Rain
11:59 AM 37.4 °F 30.8 °F 33.8 °F 87% 30.00 in 9.0 mi NW 9.2 mph - 0.00 in Rain Light Rain
12:51 PM 39.2 °F 32.0 °F 33.8 °F 81% 29.98 in 10.0 mi NNW 11.5 mph - 0.01 in   Overcast
12:53 PM 39.0 °F 32.3 °F 34.0 °F 82% 29.97 in 10.0 mi NNW 10.4 mph - 0.01 in   Overcast
1:24 PM 39.2 °F 32.5 °F 35.6 °F 87% 29.97 in 2.5 mi NW 10.4 mph - 0.00 in Rain Light Rain
1:36 PM 39.2 °F 32.5 °F 35.6 °F 87% 29.98 in 3.0 mi WNW 10.4 mph - 0.01 in Rain Light Rain
1:46 PM 39.2 °F 32.0 °F 35.6 °F 87% 29.97 in 3.0 mi NW 11.5 mph - 0.01 in   Overcast
1:53 PM 39.0 °F 33.4 °F 35.1 °F 86% 29.95 in 3.0 mi NW 8.1 mph 17.3 mph 0.01 in   Overcast
2:11 PM 39.2 °F 33.6 °F 35.6 °F 87% 29.96 in 4.0 mi NW 8.1 mph - N/A   Overcast
2:23 PM 39.2 °F 33.6 °F 35.6 °F 87% 29.96 in 3.0 mi NW 8.1 mph - 0.00 in Rain Light Rain
2:37 PM 39.2 °F 33.0 °F 35.6 °F 87% 29.95 in 7.0 mi NNW 9.2 mph - 0.00 in   Overcast
2:42 PM 39.2 °F 32.0 °F 35.6 °F 87% 29.95 in 5.0 mi NNW 11.5 mph - 0.00 in   Overcast
2:53 PM 39.0 °F 32.8 °F 36.0 °F 89% 29.95 in 5.0 mi NW 9.2 mph - 0.00 in   Overcast
3:32 PM 39.2 °F 35.0 °F 35.6 °F 87% 29.96 in 3.0 mi NW 5.8 mph - 0.00 in Rain Light Rain
3:38 PM 39.2 °F 34.2 °F 35.6 °F 87% 29.96 in 3.0 mi NW 6.9 mph - 0.01 in Rain Light Rain
3:59 PM 39.2 °F 31.2 °F 35.6 °F 87% 29.93 in 4.0 mi NW 13.8 mph 20.7 mph 0.01 in Rain Light Rain
4:53 PM 39.0 °F 32.8 °F 36.0 °F 89% 29.91 in 8.0 mi WNW 9.2 mph - 0.04 in Rain Light Rain
5:05 PM 39.2 °F 32.5 °F 35.6 °F 87% 29.93 in 7.0 mi WNW 10.4 mph - 0.01 in Rain Light Rain
5:24 PM 39.2 °F 32.5 °F 35.6 °F 87% 29.93 in 10.0 mi NW 10.4 mph - 0.02 in Rain Light Rain
5:53 PM 39.0 °F 32.8 °F 35.1 °F 86% 29.90 in 10.0 mi NW 9.2 mph 17.3 mph 0.02 in   Overcast
6:53 PM 39.0 °F 33.4 °F 35.1 °F 86% 29.91 in 10.0 mi NNW 8.1 mph - N/A   Overcast
7:25 PM 37.4 °F 30.8 °F 35.6 °F 93% 29.91 in 10.0 mi WNW 9.2 mph - N/A   Overcast
7:53 PM 37.9 °F 31.5 °F 35.1 °F 89% 29.88 in 10.0 mi NW 9.2 mph - N/A   Overcast
8:53 PM 37.9 °F 32.1 °F 35.1 °F 89% 29.89 in 10.0 mi WNW 8.1 mph - N/A   Overcast
9:22 PM 37.4 °F 31.4 °F 35.6 °F 93% 29.90 in 5.0 mi NW 8.1 mph - 0.00 in   Overcast
9:49 PM 37.4 °F 32.8 °F 35.6 °F 93% 29.89 in 3.0 mi WNW 5.8 mph - 0.00 in   Overcast
9:53 PM 37.0 °F 30.4 °F 35.1 °F 93% 29.87 in 4.0 mi NW 9.2 mph - 0.00 in   Overcast
9:57 PM 37.4 °F 32.8 °F 35.6 °F 93% 29.89 in 5.0 mi NW 5.8 mph - N/A   Overcast
10:04 PM 37.4 °F 32.8 °F 35.6 °F 93% 29.89 in 4.0 mi WNW 5.8 mph - N/A   Overcast
10:15 PM 37.4 °F 30.3 °F 35.6 °F 93% 29.89 in 5.0 mi WNW 10.4 mph - N/A   Overcast
10:53 PM 37.0 °F 31.0 °F 35.1 °F 93% 29.87 in 3.0 mi West 8.1 mph - 0.01 in   Overcast
11:03 PM 37.4 °F 32.1 °F 35.6 °F 93% 29.89 in 2.5 mi West 6.9 mph - 0.00 in   Overcast
11:22 PM 37.4 °F 32.1 °F 35.6 °F 93% 29.89 in 4.0 mi West 6.9 mph - 0.02 in Rain Light Rain
11:31 PM 37.4 °F 32.1 °F 35.6 °F 93% 29.88 in 6.0 mi WNW 6.9 mph - 0.03 in Rain Light Rain
11:53 PM 36.0 °F 29.6 °F 34.0 °F 93% 29.85 in 5.0 mi West 8.1 mph - 0.05 in Rain Light Rain